Other Public Products
Issued by NWS Grand Forks, ND

Home | Current Version | Previous Version | Graphics & Text | Print | Product List | Glossary On
Versions: 1 2 3 4 5 6 7 8 9 10 11 12 13 14 15 16 17 18 19 20 21 22 23 24 25 26 27 28 29 30 31 32 33 34 35 36 37 38 39 40 41 42 43 44 45 46 47 48 49 50
757
FPUS83 KFGF 040710
OPUFGF
PRAIRIE TO PINES WEATHER ROUNDUP
NATIONAL WEATHER SERVICE EASTERN NORTH DAKOTA/GRAND FORKS ND
200 AM CDT WED MAY 04 2016

 **SATELLITE DATA USED TO AUGMENT SKY COVER AT AUTOMATED STATIONS**
 *****  WEATHER ACROSS EASTERN NORTH DAKOTA  *****

CITY           SKY/WX    TMP DP  RH WIND       PRES   REMARKS
GRAND FORKS    CLEAR     38  30  73 NW9       30.03R
GRAND FORKS AF CLEAR     42  31  65 N7        30.04R
GRAND CITY NWS NOT AVBL
BUXTON         NOT AVBL
DEVILS LAKE    PTCLDY    38  29  70 N6        30.07R
FARGO          CLEAR     44  29  55 N10       30.01R
WAHPETON ARPT  SUNNY     46  28  49 N10       30.00R
$$

 *****  WEATHER ACROSS CENTRAL AND WESTERN NORTH DAKOTA  *****

CITY           SKY/WX    TMP DP  RH WIND       PRES   REMARKS
JAMESTOWN      CLEAR     39  30  70 NW6       30.05R
BISMARCK       CLEAR     44  31  60 CALM      30.10R
MINOT          CLEAR     51  28  41 SE5       30.07R
MINOT AFB      CLEAR     43  30  60 S5        30.07R
GARRISON         N/A     48  30  49 CALM      30.08R
WILLISTON      CLEAR     48  39  71 W3        30.06S
DICKINSON      PTCLDY    48  35  60 S6        30.08R
HETTINGER      CLEAR     41  35  79 CALM      30.11R
$$

 *****  OTHER OBSERVATIONS NORTHEAST NORTH DAKOTA  *****

CITY           SKY/WX    TMP DP  RH WIND       PRES   REMARKS
WALHALLA       FAIR      39  32  75 NW5       30.07R
LANGDON        FAIR      37  32  81 N7        30.06S
CAVALIER       FAIR      45  32  61 N7        30.06R
GRAFTON        FAIR      41  32  70 NW7       30.06R
CANDO          FAIR      36  30  80 N7        30.10R
FORT TOTTEN      N/A     44  32  63 CALM      29.95
ROLLA          FAIR      36  27  69 NW6       30.09R
RUGBY          FAIR      37  32  81 E6        30.08R
 ***** THE ABOVE OBSERVATIONS ARE NON NWS ARE NOT QUALITY
        CONTROLLED AND MAY MIS-REPORT RAIN FOR SNOW...
$$

 *****  OTHER OBSERVATIONS SOUTHEAST NORTH DAKOTA *****

CITY           SKY/WX    TMP DP  RH WIND       PRES   REMARKS
COOPERSTOWN    NOT AVBL
VALLEY CITY    FAIR      41  32  70 NW7       30.06R
OAKES            N/A    N/A N/A N/A MISG        N/A
GWINNER        FAIR      46  34  61 N12       30.03R
SHEYENNE NWR     N/A     47  29  50 N6        29.95S
BUFFALO        NOT AVBL
WYNDMERE         N/A     45  28  53 NW6         N/A
 ***** THE ABOVE OBSERVATIONS ARE NON NWS ARE NOT QUALITY
       CONTROLLED AND MAY MIS-REPORT RAIN FOR SNOW...
$$

  *****  WEATHER ACROSS NORTHERN MINNESOTA  *****

CITY           SKY/WX    TMP DP  RH WIND       PRES   REMARKS
FLAG ISLAND    CLEAR     46  36  66 N9        29.99R
WARROAD        CLEAR     41  36  81 NW7       30.01R
ROSEAU         CLEAR     43  36  75 N7        30.01R
HALLOCK        CLEAR     39  30  70 N6        30.03S
THF RVR FALLS  CLEAR     45  32  61 N9        30.02R
HALSTAD        NOT AVBL
FOSSTON        CLEAR     37  34  87 N7        30.00R
BAUDETTE       CLEAR     42  34  73 N8        29.98R
WASKISH        PTCLDY    43  36  75 NW8       29.97R
CROOKSTON      CLEAR     41  34  75 N6        30.03R
$$
  *****  WEATHER ACROSS CENTRAL AND WEST MINNESOTA  *****

CITY           SKY/WX    TMP DP  RH WIND       PRES   REMARKS
BEMIDJI        CLEAR     35  29  82 NW7       29.97R
PARK RAPIDS    CLEAR     44  32  62 N6        29.96R
WADENA         CLEAR     43  32  65 N3        29.96R
DETROIT LAKES  PTCLDY    46  36  66 N7        29.99S
MOORHEAD       CLEAR     45  28  53 NW8       30.01R
FERGUS FALLS   CLEAR     48  36  61 NE7       29.96R
ELBOW LAKE     FAIR      48  35  60 N7        29.98R
MORRIS MN      CLEAR     46  32  57 N9        29.96R
STAPLES        CLEAR     46  30  53 N5        29.96R
WHEATON        CLEAR     46  34  61 N6        30.01R
$$
  *****  WEATHER ELSEWHERE ACROSS MINNESOTA  *****

CITY           SKY/WX    TMP DP  RH WIND       PRES   REMARKS
DULUTH         CLEAR     45  32  60 N9        29.90R
INTRNTL FALLS  CLEAR     38  30  73 N7        29.95R
ELY            CLEAR     41  30  65 NW5       29.89S
CLOQUET        CLEAR     43  30  61 NW7       29.91R
BRAINERD       CLEAR     47  32  56 N6        29.94R
HIBBING        CLEAR     35  29  78 N3        29.92R
ALEXANDRIA     CLEAR     49  33  54 N9        29.97R
SAINT CLOUD    CLEAR     48  33  56 N7        29.92R
MINNEAPOLIS    CLEAR     54  33  45 NE14      29.87R
$$

  *****  WEATHER ACROSS SOUTH DAKOTA  *****

CITY           SKY/WX    TMP DP  RH WIND       PRES   REMARKS
SIOUX FALLS    CLEAR     47  33  58 N12       29.96R
BROOKINGS      CLEAR     42  32  67 N5        29.97R
WATERTOWN      PTCLDY    41  31  67 N8        29.99R
HURON          CLEAR     43  32  65 N8        30.02R
SISSETON         N/A     45  31  58 NW10      29.99R
ABERDEEN       CLEAR     43  31  62 N10       30.04R
MITCHELL       CLEAR     49  37  63 N9        30.01R
PIERRE         CLEAR     47  34  60 NE6       30.06R
MOBRIDGE       CLEAR     47  33  58 NW5       30.06R
RAPID CITY     CLEAR     52  38  58 N10       30.12R
$$

  *****  SOME WEATHER IN NEARBY STATES *****

CITY           SKY/WX    TMP DP  RH WIND       PRES   REMARKS
GLASGOW MT     CLEAR     54  39  57 SE7       30.03S
GREAT FALLS MT CLEAR     55  39  54 S12       30.02S
CHEYENNE WY    CLEAR     42  33  70 W9        30.27S
SCOTTSBLUFF NE CLEAR     44  39  82 N6        30.18S
OMAHA NE       CLEAR     57  43  59 N10       29.89R
DES MOINES IA  PTCLDY    59  36  42 NW14      29.78R
DAVENPORT IA   CLOUDY    50  47  89 S3        29.68F
CHICAGO IL     LGT RAIN  51  47  86 NW9       29.66R
EAU CLAIRE WI  PTCLDY    47  35  63 N14       29.82R
LA CROSSE WI   PTCLDY    48  45  89 NW8       29.76R
$$

  *****  SOME NATIONAL WEATHER *****

CITY           SKY/WX    TMP DP  RH WIND       PRES   REMARKS
LA GUARDIA NY  CLOUDY    51  50  96 E8        29.81R
RALEIGH NC     PTCLDY    62  60  93 CALM      29.71F
ATLANTA GA     PTCLDY    59  49  69 NW10      29.83F
NEW ORLEANS LA PTCLDY    67  57  70 N9        29.94F
OKLAHOMA CITY  CLEAR     51  50  96 SW5       30.05S
ALBUQUERQUE NM CLEAR     60  29  30 E16       30.26R
SALT LAKE CITY CLEAR     58  38  47 SE6       30.16S
LOS ANGELES CA PTCLDY    58  53  84 NW3       29.96S
BOISE ID       PTCLDY    66  33  29 SE7       30.00R
SEATTLE WA     CLOUDY    57  48  72 NE14      30.10S
$$

*** WEATHER ACROSS MANITOBA...SASKATCHEWAN AND ONTARIO ***
                ***ONTARIO***

CITY           SKY/WX    TMP DP  RH WIND       PRES   REMARKS
GERALDTON      LGT SNOW  32  30  93 N14G22    29.79R FOG     WCI  22
THUNDER BAY    MOCLDY    43  30  61 N9        29.84R
SIOUX LOOKOUT  CLEAR     37  28  70 N3        29.94R
TORONTO        PTCLDY    45  36  70 SE3       29.73F
BIG TROUT LK   CLEAR     23  21  93 N5        30.02R WCI  17
PICKLE LAKE    NOT AVBL
DRYDEN         CLEAR     39  30  70 N7        29.94S
KENORA         NOT AVBL
$$
                *** MANITOBA***

CITY           SKY/WX    TMP DP  RH WIND       PRES   REMARKS
BRANDON        CLEAR     36  25  64 N3        30.08S
DAUPHIN        CLEAR     34  25  69 W5        30.06F
ISLAND LAKE    PTCLDY    30  23  74 CALM      30.08S
PILOT MOUND    NOT AVBL
THE PAS        PTCLDY    45  34  65 S7        29.99F
THOMPSON       CLEAR     34  19  55 VRB2      30.04F
WINNIPEG       CLEAR     34  28  80 N5        30.06R
LYNN LAKE      PTCLDY    43  23  45 S8        29.94F
CHURCHILL      MOCLDY    23  21  93 S8        30.08F WCI  14
GILLAM         CLEAR     25  19  80 SE3       30.10S
$$
                ***SASKATCHEWAN***

CITY           SKY/WX    TMP DP  RH WIND       PRES   REMARKS
ESTEVAN        CLEAR     48  37  66 S7        30.05R
KINDERSLEY     CLEAR     55  37  50 S10       29.92F
LLOYDMINSTER   CLEAR     57  41  54 S9        29.85F
PRINCE ALBERT  MOCLDY    52  41  66 E6        29.90F
REGINA         CLEAR     57  36  44 S13       30.01S
YORKTON        PTCLDY    50  34  53 S12       30.03R   C1F1C2F2C3F3C4F4C5F5C6F6C7F7C8F8C9F9CaFaCbFbCcFcCdFdCe!



USA.gov is the U.S. government's official web portal to all federal, state and local government web resources and services.